User: anonymous   Login
Location: Artiguedieu
(43.5000°N, 0.5454°E)
Time: 11:14:00
(UTC+00:00)
Language:

Transit 2A - Orbit

View from above orbital plane
View from above orbital plane
View from above satellite
View from above satellite

Ground track
Ground track

The orbit data is extracted from the following two-line orbital elements,

1 00045U 60007A   21213.84043155 -.00000067  00000-0  10239-4 0  9994
2 00045  66.6955  19.4105 0253204  15.2669 345.5890 14.33728555124669
Epoch (UTC): 01 August 2021 20:10:13
Eccentricity: 0.0253204
inclination: 66.6955°
perigee height: 598 km
apogee height: 960 km
right ascension of ascending node: 19.4105°
argument of perigee: 15.2669°
revolutions per day: 14.33728555
mean anomaly at epoch: 345.5890°
orbit number at epoch: 12466

The dashed part of the orbit path shows where the satellite is in the earth's shadow,  

DLR